�������l�o���
Date,Time,MP-1(��Sv/h),MP-2(��Sv/h),MP-3(��Sv/h),MP-4(��Sv/h),MP-5(��Sv/h),MP-6(��Sv/h),MP-7(��Sv/h),MP-8(��Sv/h),����,����(m/s),���J
2020/05/27,00:00,0.683,0.971,0.633,1.173,0.840,0.397,0.681,0.645,��쓌,3.0,�L
2020/05/27,00:10,0.681,0.970,0.633,1.174,0.836,0.398,0.681,0.642,��쓌,3.1,�L
2020/05/27,00:20,0.680,0.971,0.632,1.175,0.838,0.397,0.681,0.642,��,3.4,�L
2020/05/27,00:30,0.682,0.972,0.630,1.172,0.838,0.396,0.683,0.642,��,4.6,�L
2020/05/27,00:40,0.683,0.971,0.629,1.172,0.836,0.397,0.680,0.641,��,4.8,�L
2020/05/27,00:50,0.683,0.967,0.631,1.173,0.838,0.396,0.682,0.644,��,5.1,�L
2020/05/27,01:00,0.680,0.969,0.632,1.172,0.838,0.398,0.682,0.641,��,5.5,��
2020/05/27,01:10,0.681,0.970,0.629,1.174,0.838,0.396,0.682,0.642,��,5.0,��
2020/05/27,01:20,0.682,0.968,0.628,1.172,0.836,0.398,0.682,0.643,��,4.2,��
2020/05/27,01:30,0.682,0.968,0.628,1.172,0.835,0.395,0.681,0.642,��,4.5,��
2020/05/27,01:40,0.682,0.968,0.629,1.172,0.836,0.396,0.680,0.643,��,4.4,��
2020/05/27,01:50,0.680,0.967,0.628,1.172,0.835,0.396,0.681,0.642,��,4.1,��
2020/05/27,02:00,0.679,0.969,0.628,1.173,0.837,0.396,0.681,0.641,��,4.4,�L
2020/05/27,02:10,0.678,0.966,0.628,1.172,0.835,0.396,0.681,0.643,��쐼,4.0,�L
2020/05/27,02:20,0.680,0.967,0.628,1.173,0.835,0.397,0.683,0.643,��쐼,4.2,��
2020/05/27,02:30,0.681,0.970,0.626,1.172,0.835,0.395,0.680,0.642,��쐼,4.9,�L
2020/05/27,02:40,0.681,0.967,0.630,1.175,0.836,0.396,0.682,0.642,��쐼,4.7,�L
2020/05/27,02:50,0.682,0.968,0.629,1.174,0.837,0.397,0.681,0.643,��쐼,3.6,�L
2020/05/27,03:00,0.681,0.968,0.629,1.171,0.838,0.397,0.682,0.643,��쐼,3.1,�L
2020/05/27,03:10,0.682,0.970,0.630,1.174,0.836,0.397,0.681,0.643,��쐼,2.6,�L
2020/05/27,03:20,0.682,0.969,0.629,1.171,0.838,0.398,0.682,0.643,��쐼,3.1,�L
2020/05/27,03:30,0.680,0.968,0.628,1.173,0.836,0.397,0.680,0.642,�쐼,2.0,��
2020/05/27,03:40,0.682,0.970,0.631,1.173,0.836,0.397,0.682,0.642,�쐼,1.2,��
2020/05/27,03:50,0.682,0.967,0.630,1.174,0.839,0.397,0.684,0.643,���k��,0.6,��
2020/05/27,04:00,0.684,0.970,0.631,1.172,0.839,0.398,0.683,0.645,�k��,1.9,��
2020/05/27,04:10,0.682,0.970,0.631,1.174,0.839,0.396,0.683,0.642,�k�k��,3.3,��
2020/05/27,04:20,0.682,0.970,0.631,1.176,0.841,0.398,0.683,0.645,�k�k��,3.0,��
2020/05/27,04:30,0.682,0.969,0.632,1.174,0.837,0.398,0.685,0.643,�k,2.6,��
2020/05/27,04:40,0.683,0.970,0.630,1.173,0.838,0.396,0.682,0.643,�k�k��,2.9,��
2020/05/27,04:50,0.682,0.970,0.631,1.173,0.840,0.398,0.684,0.644,�k�k��,3.8,��
2020/05/27,05:00,0.682,0.969,0.629,1.173,0.838,0.398,0.682,0.644,�k�k��,3.7,��
2020/05/27,05:10,0.681,0.971,0.628,1.173,0.840,0.397,0.683,0.644,�k�k��,5.1,��
2020/05/27,05:20,0.683,0.969,0.628,1.172,0.837,0.397,0.682,0.643,�k�k��,5.7,��
2020/05/27,05:30,0.680,0.969,0.628,1.171,0.835,0.397,0.681,0.644,�k�k��,5.8,��
2020/05/27,05:40,0.680,0.967,0.629,1.172,0.838,0.396,0.682,0.644,�k�k��,5.3,��
2020/05/27,05:50,0.680,0.969,0.630,1.175,0.837,0.397,0.682,0.643,�k�k��,5.2,�L
2020/05/27,06:00,0.681,0.969,0.629,1.174,0.838,0.397,0.681,0.643,�k�k��,6.2,�L
2020/05/27,06:10,0.682,0.967,0.631,1.172,0.838,0.396,0.679,0.643,�k�k��,6.8,�L
2020/05/27,06:20,0.681,0.968,0.627,1.172,0.836,0.396,0.681,0.644,�k�k��,6.6,�L
2020/05/27,06:30,0.680,0.971,0.630,1.173,0.840,0.396,0.680,0.642,�k�k��,6.7,�L
2020/05/27,06:40,0.680,0.970,0.629,1.171,0.837,0.395,0.680,0.642,�k�k��,6.2,�L
2020/05/27,06:50,0.681,0.968,0.629,1.172,0.839,0.395,0.679,0.645,�k��,6.1,�L
2020/05/27,07:00,0.682,0.969,0.632,1.173,0.838,0.397,0.680,0.643,�k��,6.3,�L
2020/05/27,07:10,0.680,0.968,0.629,1.174,0.838,0.396,0.680,0.642,�k��,4.9,�L
2020/05/27,07:20,0.682,0.968,0.629,1.173,0.838,0.396,0.681,0.643,�k��,3.3,�L
2020/05/27,07:30,0.682,0.969,0.632,1.172,0.837,0.398,0.681,0.642,�k��,2.5,�L
2020/05/27,07:40,0.683,0.966,0.630,1.173,0.836,0.397,0.680,0.642,�k��,3.3,�L
2020/05/27,07:50,0.682,0.968,0.631,1.175,0.838,0.395,0.681,0.643,�k�k��,2.0,��
2020/05/27,08:00,0.681,0.967,0.628,1.174,0.839,0.396,0.680,0.642,�k��,2.8,��
2020/05/27,08:10,0.680,0.966,0.627,1.174,0.838,0.396,0.682,0.643,�k��,2.6,��
2020/05/27,08:20,0.681,0.964,0.628,1.172,0.841,0.396,0.681,0.643,�k��,2.3,��
2020/05/27,08:30,0.679,0.964,0.626,1.173,0.837,0.395,0.683,0.642,�k,1.5,��
2020/05/27,08:40,0.678,0.960,0.616,1.174,0.838,0.394,0.682,0.642,�k�k��,0.9,��
2020/05/27,08:50,0.677,0.962,0.615,1.174,0.835,0.393,0.681,0.641,�k,1.1,��
2020/05/27,09:00,0.679,0.960,0.614,1.173,0.836,0.393,0.681,0.639,-,CALM,��
2020/05/27,09:10,0.677,0.961,0.620,1.174,0.836,0.394,0.681,0.641,-,CALM,��
2020/05/27,09:20,0.679,0.958,0.621,1.174,0.836,0.395,0.682,0.640,-,CALM,��
2020/05/27,09:30,0.678,0.960,0.616,1.175,0.836,0.392,0.683,0.640,-,CALM,��
2020/05/27,09:40,0.681,0.960,0.616,1.174,0.837,0.393,0.683,0.643,��,1.5,��
2020/05/27,09:50,0.681,0.961,0.620,1.175,0.837,0.394,0.683,0.641,���k��,1.2,��
2020/05/27,10:00,0.680,0.961,0.618,1.175,0.838,0.394,0.683,0.642,��,1.7,��
2020/05/27,10:10,0.680,0.964,0.623,1.174,0.839,0.394,0.681,0.641,��,1.5,��
2020/05/27,10:20,0.679,0.962,0.621,1.176,0.840,0.395,0.681,0.640,��,2.3,��
2020/05/27,10:30,0.681,0.964,0.623,1.177,0.839,0.395,0.682,0.642,���쓌,2.6,��
2020/05/27,10:40,0.682,0.964,0.626,1.178,0.838,0.395,0.682,0.641,��,2.8,��
2020/05/27,10:50,0.683,0.966,0.624,1.176,0.839,0.394,0.682,0.642,���쓌,3.0,��
2020/05/27,11:00,0.682,0.968,0.625,1.177,0.842,0.395,0.685,0.642,���쓌,3.2,��
2020/05/27,11:10,0.685,0.967,0.627,1.175,0.843,0.396,0.683,0.640,�쓌,2.9,��
2020/05/27,11:20,0.685,0.967,0.625,1.174,0.838,0.394,0.684,0.640,�쓌,2.9,��
2020/05/27,11:30,0.682,0.969,0.627,1.174,0.842,0.396,0.684,0.641,��쓌,4.4,��
2020/05/27,11:40,0.685,0.970,0.627,1.174,0.843,0.395,0.686,0.642,��쓌,3.5,��
2020/05/27,11:50,0.684,0.974,0.626,1.175,0.843,0.397,0.686,0.643,��쓌,2.6,��
2020/05/27,12:00,0.689,0.973,0.626,1.176,0.843,0.397,0.688,0.641,��쓌,3.0,��
2020/05/27,12:10,0.687,0.976,0.627,1.176,0.844,0.395,0.685,0.643,�쓌,4.4,��
2020/05/27,12:20,0.686,0.977,0.629,1.176,0.846,0.396,0.684,0.645,��쓌,4.5,��
2020/05/27,12:30,0.685,0.976,0.628,1.175,0.846,0.396,0.682,0.642,�쓌,4.5,��
2020/05/27,12:40,0.686,0.979,0.625,1.177,0.845,0.396,0.684,0.643,��쓌,5.6,��
2020/05/27,12:50,0.686,0.979,0.624,1.179,0.846,0.397,0.684,0.644,�쓌,5.8,��
2020/05/27,13:00,0.687,0.978,0.621,1.176,0.846,0.398,0.683,0.643,�쓌,6.3,��
2020/05/27,13:10,0.686,0.979,0.621,1.179,0.845,0.397,0.684,0.644,�쓌,5.5,��
2020/05/27,13:20,0.684,0.978,0.621,1.176,0.846,0.396,0.686,0.643,�쓌,4.9,��
2020/05/27,13:30,0.685,0.976,0.621,1.178,0.844,0.399,0.685,0.642,�쓌,4.4,��
2020/05/27,13:40,0.687,0.976,0.620,1.178,0.846,0.397,0.686,0.645,��쓌,4.8,��
2020/05/27,13:50,0.688,0.977,0.621,1.180,0.848,0.398,0.684,0.642,��쓌,5.0,��
2020/05/27,14:00,0.687,0.978,0.623,1.182,0.846,0.398,0.686,0.643,��쓌,5.5,��
2020/05/27,14:10,0.687,0.976,0.623,1.178,0.846,0.399,0.685,0.644,��쓌,7.5,��
2020/05/27,14:20,0.688,0.975,0.628,1.180,0.845,0.398,0.684,0.645,��쓌,8.0,��
2020/05/27,14:30,0.688,0.977,0.626,1.178,0.847,0.398,0.684,0.643,��쓌,9.0,��
2020/05/27,14:40,0.689,0.980,0.624,1.180,0.845,0.398,0.685,0.645,��쓌,8.3,��
2020/05/27,14:50,0.687,0.981,0.625,1.178,0.846,0.399,0.687,0.644,��쓌,8.8,��
2020/05/27,15:00,0.687,0.977,0.627,1.181,0.848,0.398,0.685,0.644,��쓌,7.8,��
2020/05/27,15:10,0.686,0.979,0.621,1.182,0.847,0.398,0.685,0.644,��쓌,8.8,��
2020/05/27,15:20,0.687,0.984,0.624,1.179,0.848,0.399,0.685,0.645,��쓌,8.7,��
2020/05/27,15:30,0.687,0.982,0.626,1.182,0.846,0.398,0.685,0.645,��쓌,8.6,��
2020/05/27,15:40,0.686,0.981,0.627,1.180,0.846,0.398,0.685,0.643,��쓌,9.8,��
2020/05/27,15:50,0.686,0.983,0.624,1.179,0.846,0.400,0.684,0.643,��쓌,10.2,��
2020/05/27,16:00,0.688,0.985,0.626,1.180,0.848,0.400,0.685,0.643,��쓌,9.7,��
2020/05/27,16:10,0.687,0.983,0.626,1.180,0.847,0.400,0.685,0.644,��쓌,8.0,��
2020/05/27,16:20,0.687,0.983,0.627,1.178,0.848,0.401,0.686,0.645,��쓌,7.7,��
2020/05/27,16:30,0.687,0.982,0.625,1.182,0.847,0.400,0.686,0.644,��쓌,8.8,��
2020/05/27,16:40,0.687,0.983,0.626,1.180,0.850,0.400,0.684,0.643,��쓌,8.6,��
2020/05/27,16:50,0.685,0.980,0.626,1.179,0.847,0.399,0.683,0.642,��,8.3,��
2020/05/27,17:00,0.688,0.982,0.623,1.181,0.848,0.400,0.684,0.644,��,7.0,��
2020/05/27,17:10,0.685,0.986,0.626,1.182,0.847,0.400,0.685,0.645,��,4.5,��
2020/05/27,17:20,0.685,0.985,0.626,1.184,0.847,0.400,0.685,0.644,�쓌,3.3,��
2020/05/27,17:30,0.686,0.983,0.626,1.182,0.849,0.399,0.683,0.643,��쓌,5.9,��
2020/05/27,17:40,0.686,0.984,0.624,1.184,0.848,0.399,0.685,0.644,��쓌,3.3,��
2020/05/27,17:50,0.684,0.985,0.625,1.183,0.848,0.400,0.685,0.644,��쓌,2.0,��
2020/05/27,18:00,0.687,0.986,0.627,1.184,0.847,0.400,0.684,0.646,-,CALM,��
2020/05/27,18:10,0.685,0.986,0.626,1.186,0.847,0.399,0.682,0.644,�k��,2.3,��
2020/05/27,18:20,0.688,0.988,0.625,1.183,0.847,0.400,0.683,0.646,�k�k��,2.6,��
2020/05/27,18:30,0.688,0.987,0.628,1.183,0.848,0.401,0.684,0.646,�k��,2.9,��
2020/05/27,18:40,0.688,0.987,0.627,1.187,0.848,0.399,0.686,0.647,�k�k��,2.9,��
2020/05/27,18:50,0.688,0.985,0.627,1.182,0.851,0.400,0.686,0.645,�k,2.8,��
2020/05/27,19:00,0.689,0.985,0.625,1.184,0.850,0.401,0.684,0.647,�k�k��,2.5,��
2020/05/27,19:10,0.688,0.985,0.627,1.186,0.849,0.402,0.685,0.646,�k�k��,2.0,��
2020/05/27,19:20,0.688,0.987,0.627,1.186,0.851,0.399,0.686,0.646,�k�k��,1.9,��
2020/05/27,19:30,0.689,0.987,0.628,1.184,0.850,0.400,0.686,0.647,�k��,1.5,��
2020/05/27,19:40,0.688,0.986,0.629,1.186,0.851,0.400,0.687,0.647,�k��,2.3,��
2020/05/27,19:50,0.689,0.986,0.629,1.184,0.852,0.401,0.688,0.646,���쐼,0.9,��
2020/05/27,20:00,0.689,0.987,0.628,1.184,0.849,0.401,0.687,0.646,-,CALM,��
2020/05/27,20:10,0.688,0.988,0.628,1.187,0.850,0.401,0.686,0.645,�k��,1.2,��
2020/05/27,20:20,0.691,0.987,0.628,1.183,0.850,0.401,0.687,0.647,��,3.0,��
2020/05/27,20:30,0.689,0.987,0.627,1.187,0.851,0.400,0.687,0.647,���k��,2.5,��
2020/05/27,20:40,0.688,0.984,0.629,1.187,0.850,0.400,0.687,0.647,���k��,2.0,��
2020/05/27,20:50,0.689,0.985,0.628,1.185,0.851,0.399,0.687,0.648,�k�k��,3.3,��
2020/05/27,21:00,0.688,0.987,0.628,1.183,0.851,0.400,0.689,0.645,�k�k��,2.3,��
2020/05/27,21:10,0.688,0.987,0.630,1.187,0.850,0.401,0.688,0.647,�k,2.3,��
2020/05/27,21:20,0.689,0.988,0.627,1.186,0.851,0.401,0.687,0.646,�k��,2.3,��
2020/05/27,21:30,0.689,0.988,0.627,1.185,0.850,0.399,0.689,0.645,�k�k��,3.7,��
2020/05/27,21:40,0.689,0.986,0.627,1.183,0.850,0.402,0.689,0.646,�k�k��,4.6,��
2020/05/27,21:50,0.686,0.986,0.629,1.185,0.850,0.398,0.687,0.646,�k�k��,3.8,��
2020/05/27,22:00,0.688,0.985,0.626,1.186,0.850,0.398,0.688,0.646,�k�k��,2.5,��
2020/05/27,22:10,0.688,0.987,0.626,1.184,0.849,0.399,0.687,0.646,�k�k��,2.5,��
2020/05/27,22:20,0.687,0.984,0.626,1.184,0.850,0.400,0.686,0.647,�k,1.9,��
2020/05/27,22:30,0.691,0.985,0.628,1.182,0.849,0.398,0.686,0.646,�k�k��,1.5,��
2020/05/27,22:40,0.689,0.984,0.626,1.185,0.847,0.399,0.688,0.646,�k�k��,2.0,��
2020/05/27,22:50,0.688,0.986,0.626,1.185,0.851,0.400,0.688,0.648,�k�k��,2.3,��
2020/05/27,23:00,0.686,0.983,0.627,1.184,0.850,0.400,0.686,0.647,�k,4.2,��
2020/05/27,23:10,0.687,0.985,0.626,1.186,0.850,0.401,0.687,0.645,�k�k��,4.1,��
2020/05/27,23:20,0.688,0.987,0.627,1.184,0.853,0.401,0.688,0.646,�k�k��,6.5,��
2020/05/27,23:30,0.688,0.985,0.625,1.186,0.850,0.401,0.688,0.645,�k�k��,6.6,��
2020/05/27,23:40,0.686,0.984,0.627,1.184,0.850,0.399,0.686,0.648,�k�k��,7.2,��
2020/05/27,23:50,0.687,0.985,0.626,1.186,0.851,0.399,0.687,0.646,�k�k��,7.0,��
